Time,TemperatureF,DewpointF,PressureIn,WindDirection,WindDirectionDegrees,WindSpeedMPH,WindSpeedGustMPH,Humidity,HourlyPrecipIn,Conditions,Clouds,dailyrainin,SoftwareType,DateUTC
2013-05-11 00:01:00,58.1,43.5,30.17,NNW,338,2.0,7.6,58,0.00,,,0.00,WUHU216HW,2013-05-11 06:01:00,
2013-05-11 00:06:00,58.0,43.3,30.17,NW,315,3.4,6.5,58,0.00,,,0.00,WUHU216HW,2013-05-11 06:06:00,
2013-05-11 00:11:00,58.0,43.3,30.17,WNW,293,3.6,6.5,58,0.00,,,0.00,WUHU216HW,2013-05-11 06:11:00,
2013-05-11 00:16:00,58.0,43.7,30.18,North,0,2.7,4.9,59,0.00,,,0.00,WUHU216HW,2013-05-11 06:16:00,
2013-05-11 00:21:00,57.8,43.6,30.18,NNE,23,3.6,6.3,59,0.00,,,0.00,WUHU216HW,2013-05-11 06:21:00,
2013-05-11 00:26:00,57.6,43.9,30.18,North,0,3.1,6.3,60,0.00,,,0.00,WUHU216HW,2013-05-11 06:26:00,
2013-05-11 00:31:00,57.4,43.8,30.18,NNW,338,3.4,5.4,60,0.00,,,0.00,WUHU216HW,2013-05-11 06:31:00,
2013-05-11 00:36:00,57.4,43.8,30.19,North,0,3.4,5.4,60,0.00,,,0.00,WUHU216HW,2013-05-11 06:36:00,
2013-05-11 00:41:00,57.2,43.9,30.19,North,0,4.0,5.4,61,0.00,,,0.00,WUHU216HW,2013-05-11 06:41:00,
2013-05-11 00:46:00,57.1,43.7,30.19,NNW,338,2.0,5.4,61,0.00,,,0.00,WUHU216HW,2013-05-11 06:46:00,
2013-05-11 00:51:00,56.7,44.2,30.18,North,0,3.6,5.6,63,0.00,,,0.00,WUHU216HW,2013-05-11 06:51:00,
2013-05-11 00:56:00,56.5,44.0,30.18,North,0,3.4,6.3,63,0.00,,,0.00,WUHU216HW,2013-05-11 06:56:00,
2013-05-11 01:01:00,56.5,44.5,30.18,North,0,2.9,6.3,64,0.00,,,0.00,WUHU216HW,2013-05-11 07:01:00,
2013-05-11 01:06:00,56.3,44.3,30.18,North,0,2.9,6.0,64,0.00,,,0.00,WUHU216HW,2013-05-11 07:06:00,
2013-05-11 01:11:00,56.3,44.3,30.19,NNW,338,2.7,6.0,64,0.00,,,0.00,WUHU216HW,2013-05-11 07:11:00,
2013-05-11 01:16:00,56.2,44.1,30.18,NNW,338,6.7,6.7,64,0.00,,,0.00,WUHU216HW,2013-05-11 07:16:00,
2013-05-11 01:21:00,56.2,44.1,30.18,NNW,338,2.7,6.7,64,0.00,,,0.00,WUHU216HW,2013-05-11 07:21:00,
2013-05-11 01:26:00,56.2,44.1,30.18,NNW,338,2.0,6.7,64,0.00,,,0.00,WUHU216HW,2013-05-11 07:26:00,
2013-05-11 01:31:00,56.0,43.9,30.18,North,0,3.1,4.0,64,0.00,,,0.00,WUHU216HW,2013-05-11 07:31:00,
2013-05-11 01:36:00,56.0,43.6,30.19,NNW,338,3.6,4.0,63,0.00,,,0.00,WUHU216HW,2013-05-11 07:36:00,
2013-05-11 01:41:00,55.8,43.7,30.19,NNW,338,2.0,4.5,64,0.00,,,0.00,WUHU216HW,2013-05-11 07:41:00,
2013-05-11 01:46:00,55.8,43.4,30.19,North,0,2.5,4.7,63,0.00,,,0.00,WUHU216HW,2013-05-11 07:46:00,
2013-05-11 01:51:00,55.6,43.6,30.19,North,0,1.1,4.7,64,0.00,,,0.00,WUHU216HW,2013-05-11 07:51:00,
2013-05-11 01:56:00,55.4,43.4,30.19,North,0,2.9,4.5,64,0.00,,,0.00,WUHU216HW,2013-05-11 07:56:00,
2013-05-11 02:01:00,55.4,43.0,30.19,NW,315,3.1,4.7,63,0.00,,,0.00,WUHU216HW,2013-05-11 08:01:00,
2013-05-11 02:06:00,55.4,43.0,30.19,North,0,1.3,4.7,63,0.00,,,0.00,WUHU216HW,2013-05-11 08:06:00,
2013-05-11 02:11:00,55.3,42.9,30.18,NNW,338,1.8,4.5,63,0.00,,,0.00,WUHU216HW,2013-05-11 08:11:00,
2013-05-11 02:16:00,55.4,43.0,30.18,NNW,338,0.7,3.8,63,0.00,,,0.00,WUHU216HW,2013-05-11 08:16:00,
2013-05-11 02:21:00,55.4,42.6,30.18,NNW,338,0.9,3.8,62,0.00,,,0.00,WUHU216HW,2013-05-11 08:21:00,
2013-05-11 02:26:00,55.4,42.6,30.18,North,0,0.9,2.5,62,0.00,,,0.00,WUHU216HW,2013-05-11 08:26:00,
2013-05-11 02:31:00,55.3,42.4,30.18,NW,315,1.1,2.2,62,0.00,,,0.00,WUHU216HW,2013-05-11 08:31:00,
2013-05-11 02:36:00,55.3,42.4,30.18,NNW,338,0.7,2.5,62,0.00,,,0.00,WUHU216HW,2013-05-11 08:36:00,
2013-05-11 02:41:00,55.4,42.6,30.18,North,0,2.0,2.5,62,0.00,,,0.00,WUHU216HW,2013-05-11 08:41:00,
2013-05-11 02:46:00,55.4,42.2,30.18,North,0,0.9,2.9,61,0.00,,,0.00,WUHU216HW,2013-05-11 08:46:00,
2013-05-11 02:51:00,55.3,42.4,30.18,North,0,1.3,2.9,62,0.00,,,0.00,WUHU216HW,2013-05-11 08:51:00,
2013-05-11 02:56:00,55.3,42.0,30.19,North,0,1.1,1.8,61,0.00,,,0.00,WUHU216HW,2013-05-11 08:56:00,
2013-05-11 03:01:00,55.3,41.6,30.19,North,0,0.2,2.5,60,0.00,,,0.00,WUHU216HW,2013-05-11 09:01:00,
2013-05-11 03:06:00,55.1,41.4,30.18,North,0,0.2,2.5,60,0.00,,,0.00,WUHU216HW,2013-05-11 09:06:00,
2013-05-11 03:11:00,55.1,41.4,30.18,North,0,0.0,1.1,60,0.00,,,0.00,WUHU216HW,2013-05-11 09:11:00,
2013-05-11 03:16:00,54.9,41.3,30.19,North,0,0.4,1.6,60,0.00,,,0.00,WUHU216HW,2013-05-11 09:16:00,
2013-05-11 03:21:00,54.7,41.1,30.18,NNE,23,1.3,1.6,60,0.00,,,0.00,WUHU216HW,2013-05-11 09:21:00,
2013-05-11 03:26:00,54.5,41.0,30.18,NNE,23,0.0,1.6,60,0.00,,,0.00,WUHU216HW,2013-05-11 09:26:00,
2013-05-11 03:31:00,54.4,40.8,30.19,NNE,23,0.0,1.3,60,0.00,,,0.00,WUHU216HW,2013-05-11 09:31:00,
2013-05-11 03:36:00,54.4,41.2,30.19,North,0,0.4,1.1,61,0.00,,,0.00,WUHU216HW,2013-05-11 09:36:00,
2013-05-11 03:41:00,54.0,40.9,30.19,North,0,0.4,1.1,61,0.00,,,0.00,WUHU216HW,2013-05-11 09:41:00,
2013-05-11 03:46:00,53.8,40.7,30.18,North,0,0.7,0.9,61,0.00,,,0.00,WUHU216HW,2013-05-11 09:46:00,
2013-05-11 03:51:00,53.6,40.5,30.19,North,0,1.1,1.1,61,0.00,,,0.00,WUHU216HW,2013-05-11 09:51:00,
2013-05-11 03:56:00,53.6,41.3,30.19,NNE,23,0.7,1.8,63,0.00,,,0.00,WUHU216HW,2013-05-11 09:56:00,
2013-05-11 04:01:00,53.6,41.8,30.19,North,0,0.9,1.8,64,0.00,,,0.00,WUHU216HW,2013-05-11 10:01:00,
2013-05-11 04:06:00,53.6,41.8,30.19,North,0,2.7,2.7,64,0.00,,,0.00,WUHU216HW,2013-05-11 10:06:00,
2013-05-11 04:11:00,53.6,41.8,30.19,NNW,338,3.4,3.4,64,0.00,,,0.00,WUHU216HW,2013-05-11 10:11:00,
2013-05-11 04:16:00,53.8,41.9,30.19,North,0,1.8,3.4,64,0.00,,,0.00,WUHU216HW,2013-05-11 10:16:00,
2013-05-11 04:21:00,53.6,41.8,30.19,North,0,2.5,3.4,64,0.00,,,0.00,WUHU216HW,2013-05-11 10:21:00,
2013-05-11 04:26:00,53.6,41.8,30.19,North,0,1.1,3.1,64,0.00,,,0.00,WUHU216HW,2013-05-11 10:26:00,
2013-05-11 04:31:00,53.6,41.8,30.19,North,0,2.5,2.9,64,0.00,,,0.00,WUHU216HW,2013-05-11 10:31:00,
2013-05-11 04:36:00,53.6,41.8,30.19,North,0,1.1,3.1,64,0.00,,,0.00,WUHU216HW,2013-05-11 10:36:00,
2013-05-11 04:41:00,53.5,41.1,30.19,North,0,0.4,3.1,63,0.00,,,0.00,WUHU216HW,2013-05-11 10:41:00,
2013-05-11 04:46:00,53.3,41.4,30.19,NNW,338,2.2,3.4,64,0.00,,,0.00,WUHU216HW,2013-05-11 10:46:00,
2013-05-11 04:51:00,53.1,41.2,30.19,NW,315,2.0,3.4,64,0.00,,,0.00,WUHU216HW,2013-05-11 10:51:00,
2013-05-11 04:56:00,53.1,41.6,30.19,North,0,3.1,3.1,65,0.00,,,0.00,WUHU216HW,2013-05-11 10:56:00,
2013-05-11 05:01:00,52.9,41.9,30.19,North,0,0.4,3.1,66,0.00,,,0.00,WUHU216HW,2013-05-11 11:01:00,
2013-05-11 05:06:00,52.9,41.9,30.19,NNW,338,1.8,3.1,66,0.00,,,0.00,WUHU216HW,2013-05-11 11:06:00,
2013-05-11 05:11:00,52.7,41.7,30.19,North,0,1.8,2.9,66,0.00,,,0.00,WUHU216HW,2013-05-11 11:11:00,
2013-05-11 05:16:00,52.7,41.7,30.19,North,0,1.8,2.9,66,0.00,,,0.00,WUHU216HW,2013-05-11 11:16:00,
2013-05-11 05:21:00,52.9,41.9,30.20,NNW,338,2.9,2.9,66,0.00,,,0.00,WUHU216HW,2013-05-11 11:21:00,
2013-05-11 05:26:00,52.7,41.3,30.20,North,0,0.7,2.9,65,0.00,,,0.00,WUHU216HW,2013-05-11 11:26:00,
2013-05-11 05:31:00,52.7,41.7,30.20,North,0,1.1,2.9,66,0.00,,,0.00,WUHU216HW,2013-05-11 11:31:00,
2013-05-11 05:36:00,52.6,41.5,30.20,North,0,0.9,1.8,66,0.00,,,0.00,WUHU216HW,2013-05-11 11:36:00,
2013-05-11 05:41:00,52.6,41.5,30.20,NNW,338,0.4,2.2,66,0.00,,,0.00,WUHU216HW,2013-05-11 11:41:00,
2013-05-11 05:46:00,52.4,41.3,30.21,NNW,338,1.1,2.2,66,0.00,,,0.00,WUHU216HW,2013-05-11 11:46:00,
2013-05-11 05:51:00,52.2,41.6,30.21,North,0,1.3,2.5,67,0.00,,,0.00,WUHU216HW,2013-05-11 11:51:00,
2013-05-11 05:56:00,52.4,41.3,30.21,NNW,338,0.7,2.5,66,0.00,,,0.00,WUHU216HW,2013-05-11 11:56:00,
2013-05-11 06:01:00,52.4,41.3,30.21,NW,315,1.6,2.5,66,0.00,,,0.00,WUHU216HW,2013-05-11 12:01:00,
2013-05-11 06:06:00,52.2,41.1,30.21,North,0,1.8,2.5,66,0.00,,,0.00,WUHU216HW,2013-05-11 12:06:00,
2013-05-11 06:11:00,52.2,41.1,30.21,NNW,338,0.4,2.2,66,0.00,,,0.00,WUHU216HW,2013-05-11 12:11:00,
2013-05-11 06:16:00,52.2,41.6,30.21,NNW,338,1.1,2.2,67,0.00,,,0.00,WUHU216HW,2013-05-11 12:16:00,
2013-05-11 06:21:00,52.4,41.3,30.22,NNW,338,1.8,2.5,66,0.00,,,0.00,WUHU216HW,2013-05-11 12:21:00,
2013-05-11 06:26:00,52.4,41.8,30.22,North,0,1.8,2.5,67,0.00,,,0.00,WUHU216HW,2013-05-11 12:26:00,
2013-05-11 06:31:00,52.6,41.5,30.22,North,0,0.9,3.1,66,0.00,,,0.00,WUHU216HW,2013-05-11 12:31:00,
2013-05-11 06:36:00,52.7,41.3,30.22,North,0,1.8,3.6,65,0.00,,,0.00,WUHU216HW,2013-05-11 12:36:00,
2013-05-11 06:41:00,52.9,41.4,30.22,North,0,3.1,3.6,65,0.00,,,0.00,WUHU216HW,2013-05-11 12:41:00,
2013-05-11 06:46:00,52.9,41.4,30.22,NW,315,1.8,3.1,65,0.00,,,0.00,WUHU216HW,2013-05-11 12:46:00,
2013-05-11 06:51:00,53.3,41.4,30.23,North,0,2.0,4.0,64,0.00,,,0.00,WUHU216HW,2013-05-11 12:51:00,
2013-05-11 06:56:00,53.6,41.8,30.23,NNW,338,1.1,4.0,64,0.00,,,0.00,WUHU216HW,2013-05-11 12:56:00,
2013-05-11 07:01:00,54.0,41.7,30.23,NNW,338,0.9,2.5,63,0.00,,,0.00,WUHU216HW,2013-05-11 13:01:00,
2013-05-11 07:06:00,54.5,41.8,30.23,NNW,338,2.2,3.4,62,0.00,,,0.00,WUHU216HW,2013-05-11 13:06:00,
2013-05-11 07:11:00,55.1,41.9,30.23,North,0,1.1,3.4,61,0.00,,,0.00,WUHU216HW,2013-05-11 13:11:00,
2013-05-11 07:16:00,55.4,41.8,30.23,North,0,1.8,2.5,60,0.00,,,0.00,WUHU216HW,2013-05-11 13:16:00,
2013-05-11 07:21:00,55.6,41.9,30.23,North,0,1.8,2.7,60,0.00,,,0.00,WUHU216HW,2013-05-11 13:21:00,
2013-05-11 07:26:00,56.7,42.6,30.23,North,0,2.2,2.7,59,0.00,,,0.00,WUHU216HW,2013-05-11 13:26:00,
2013-05-11 07:31:00,57.8,43.1,30.23,NW,315,2.0,3.1,58,0.00,,,0.00,WUHU216HW,2013-05-11 13:31:00,
2013-05-11 07:36:00,58.5,42.9,30.23,North,0,2.0,3.1,56,0.00,,,0.00,WUHU216HW,2013-05-11 13:36:00,
2013-05-11 07:41:00,58.5,42.9,30.23,NNW,338,2.5,4.0,56,0.00,,,0.00,WUHU216HW,2013-05-11 13:41:00,
2013-05-11 07:46:00,58.0,42.9,30.23,North,0,0.7,4.0,57,0.00,,,0.00,WUHU216HW,2013-05-11 13:46:00,
2013-05-11 07:51:00,58.1,42.9,30.24,North,0,2.0,2.7,57,0.00,,,0.00,WUHU216HW,2013-05-11 13:51:00,
2013-05-11 07:56:00,58.3,43.6,30.24,North,0,0.9,2.0,58,0.00,,,0.00,WUHU216HW,2013-05-11 13:56:00,
2013-05-11 08:01:00,58.7,43.5,30.24,North,0,1.6,2.2,57,0.00,,,0.00,WUHU216HW,2013-05-11 14:01:00,
2013-05-11 08:06:00,59.2,43.9,30.24,North,0,2.5,2.9,57,0.00,,,0.00,WUHU216HW,2013-05-11 14:06:00,
2013-05-11 08:11:00,59.9,44.2,30.24,NE,45,1.1,3.4,56,0.00,,,0.00,WUHU216HW,2013-05-11 14:11:00,
2013-05-11 08:16:00,60.7,43.9,30.24,North,0,0.7,3.4,54,0.00,,,0.00,WUHU216HW,2013-05-11 14:16:00,
2013-05-11 08:21:00,60.7,43.4,30.25,NNE,23,1.8,3.4,53,0.00,,,0.00,WUHU216HW,2013-05-11 14:21:00,
2013-05-11 08:26:00,61.2,43.9,30.25,North,0,0.4,2.9,53,0.00,,,0.00,WUHU216HW,2013-05-11 14:26:00,
2013-05-11 08:31:00,61.4,43.6,30.25,NE,45,1.3,1.8,52,0.00,,,0.00,WUHU216HW,2013-05-11 14:31:00,
2013-05-11 08:36:00,61.6,43.3,30.25,ENE,68,1.1,2.0,51,0.00,,,0.00,WUHU216HW,2013-05-11 14:36:00,
2013-05-11 08:41:00,61.6,43.3,30.25,North,0,0.7,2.5,51,0.00,,,0.00,WUHU216HW,2013-05-11 14:41:00,
2013-05-11 08:46:00,62.3,43.4,30.25,East,90,1.1,2.5,50,0.00,,,0.00,WUHU216HW,2013-05-11 14:46:00,
2013-05-11 08:51:00,62.6,43.2,30.25,ESE,113,2.9,2.9,49,0.00,,,0.00,WUHU216HW,2013-05-11 14:51:00,
2013-05-11 08:56:00,63.2,43.7,30.25,ESE,113,1.8,2.9,49,0.00,,,0.00,WUHU216HW,2013-05-11 14:56:00,
2013-05-11 09:01:00,64.4,44.2,30.25,ESE,113,1.6,4.0,48,0.00,,,0.00,WUHU216HW,2013-05-11 15:01:00,
2013-05-11 09:06:00,65.5,44.6,30.25,SE,135,1.1,4.0,47,0.00,,,0.00,WUHU216HW,2013-05-11 15:06:00,
2013-05-11 09:11:00,66.2,44.2,30.25,ESE,113,3.8,3.8,45,0.00,,,0.00,WUHU216HW,2013-05-11 15:11:00,
2013-05-11 09:16:00,65.9,43.8,30.25,ESE,113,2.9,4.0,45,0.00,,,0.00,WUHU216HW,2013-05-11 15:16:00,
2013-05-11 09:21:00,65.9,44.5,30.25,ESE,113,2.5,4.0,46,0.00,,,0.00,WUHU216HW,2013-05-11 15:21:00,
2013-05-11 09:26:00,66.2,44.8,30.25,ENE,68,1.6,4.0,46,0.00,,,0.00,WUHU216HW,2013-05-11 15:26:00,
2013-05-11 09:31:00,66.8,44.1,30.25,East,90,1.8,5.1,44,0.00,,,0.00,WUHU216HW,2013-05-11 15:31:00,
2013-05-11 09:36:00,67.0,44.8,30.25,ESE,113,2.5,5.1,45,0.00,,,0.00,WUHU216HW,2013-05-11 15:36:00,
2013-05-11 09:41:00,67.3,44.6,30.25,ESE,113,2.9,3.8,44,0.00,,,0.00,WUHU216HW,2013-05-11 15:41:00,
2013-05-11 09:46:00,67.9,44.5,30.25,East,90,2.5,4.0,43,0.00,,,0.00,WUHU216HW,2013-05-11 15:46:00,
2013-05-11 09:51:00,67.9,45.1,30.25,SSE,158,4.3,4.3,44,0.00,,,0.00,WUHU216HW,2013-05-11 15:51:00,
2013-05-11 09:56:00,68.9,46.0,30.25,SE,135,2.9,6.0,44,0.00,,,0.00,WUHU216HW,2013-05-11 15:56:00,
2013-05-11 10:01:00,69.3,45.7,30.25,East,90,2.7,6.0,43,0.00,,,0.00,WUHU216HW,2013-05-11 16:01:00,
2013-05-11 10:06:00,69.3,45.2,30.25,East,90,4.3,5.6,42,0.00,,,0.00,WUHU216HW,2013-05-11 16:06:00,
2013-05-11 10:11:00,69.1,45.6,30.25,SSE,158,1.8,5.6,43,0.00,,,0.00,WUHU216HW,2013-05-11 16:11:00,
2013-05-11 10:16:00,69.1,45.6,30.25,East,90,0.9,3.4,43,0.00,,,0.00,WUHU216HW,2013-05-11 16:16:00,
2013-05-11 10:21:00,68.8,45.9,30.25,ESE,113,0.9,3.4,44,0.00,,,0.00,WUHU216HW,2013-05-11 16:21:00,
2013-05-11 10:26:00,68.8,45.3,30.25,ENE,68,1.1,2.5,43,0.00,,,0.00,WUHU216HW,2013-05-11 16:26:00,
2013-05-11 10:31:00,68.9,45.5,30.25,ENE,68,3.6,4.7,43,0.00,,,0.00,WUHU216HW,2013-05-11 16:31:00,
2013-05-11 10:36:00,69.7,45.5,30.25,SE,135,3.4,4.7,42,0.00,,,0.00,WUHU216HW,2013-05-11 16:36:00,
2013-05-11 10:41:00,69.8,45.6,30.25,East,90,4.5,4.7,42,0.00,,,0.00,WUHU216HW,2013-05-11 16:41:00,
2013-05-11 10:46:00,69.3,45.2,30.25,SE,135,4.0,6.9,42,0.00,,,0.00,WUHU216HW,2013-05-11 16:46:00,
2013-05-11 10:51:00,68.9,45.5,30.25,ESE,113,1.8,6.9,43,0.00,,,0.00,WUHU216HW,2013-05-11 16:51:00,
2013-05-11 10:56:00,69.1,45.0,30.25,ESE,113,3.4,4.7,42,0.00,,,0.00,WUHU216HW,2013-05-11 16:56:00,
2013-05-11 11:01:00,68.9,44.8,30.25,ESE,113,2.5,4.7,42,0.00,,,0.00,WUHU216HW,2013-05-11 17:01:00,
2013-05-11 11:06:00,68.8,44.6,30.26,ENE,68,2.5,4.7,42,0.00,,,0.00,WUHU216HW,2013-05-11 17:06:00,
2013-05-11 11:11:00,68.8,44.6,30.25,ENE,68,2.2,4.7,42,0.00,,,0.00,WUHU216HW,2013-05-11 17:11:00,
2013-05-11 11:16:00,68.8,44.6,30.25,ENE,68,4.0,5.4,42,0.00,,,0.00,WUHU216HW,2013-05-11 17:16:00,
2013-05-11 11:21:00,69.5,45.4,30.25,East,90,4.0,5.4,42,0.00,,,0.00,WUHU216HW,2013-05-11 17:21:00,
2013-05-11 11:26:00,69.1,44.4,30.25,NE,45,2.0,5.6,41,0.00,,,0.00,WUHU216HW,2013-05-11 17:26:00,
2013-05-11 11:31:00,69.1,45.0,30.25,East,90,4.5,6.0,42,0.00,,,0.00,WUHU216HW,2013-05-11 17:31:00,
2013-05-11 11:36:00,69.5,45.4,30.25,ESE,113,3.4,6.0,42,0.00,,,0.00,WUHU216HW,2013-05-11 17:36:00,
2013-05-11 11:41:00,69.8,45.6,30.25,SSE,158,4.3,5.4,42,0.00,,,0.00,WUHU216HW,2013-05-11 17:41:00,
2013-05-11 11:46:00,71.6,45.4,30.25,ESE,113,4.5,6.0,39,0.00,,,0.00,WUHU216HW,2013-05-11 17:46:00,
2013-05-11 11:51:00,72.9,45.0,30.25,ENE,68,4.9,6.3,37,0.00,,,0.00,WUHU216HW,2013-05-11 17:51:00,
2013-05-11 11:56:00,73.6,44.1,30.25,NNE,23,3.4,6.3,35,0.00,,,0.00,WUHU216HW,2013-05-11 17:56:00,
2013-05-11 12:01:00,73.4,43.9,30.24,ENE,68,1.8,6.5,35,0.00,,,0.00,WUHU216HW,2013-05-11 18:01:00,
2013-05-11 12:06:00,74.2,44.6,30.24,ESE,113,5.6,6.5,35,0.00,,,0.00,WUHU216HW,2013-05-11 18:06:00,
2013-05-11 12:11:00,74.0,44.4,30.24,SE,135,3.8,6.3,35,0.00,,,0.00,WUHU216HW,2013-05-11 18:11:00,
2013-05-11 12:16:00,74.0,43.7,30.24,ESE,113,5.4,7.6,34,0.00,,,0.00,WUHU216HW,2013-05-11 18:16:00,
2013-05-11 12:21:00,74.5,44.1,30.24,ESE,113,4.5,8.9,34,0.00,,,0.00,WUHU216HW,2013-05-11 18:21:00,
2013-05-11 12:26:00,74.5,43.4,30.24,ENE,68,1.1,8.9,33,0.00,,,0.00,WUHU216HW,2013-05-11 18:26:00,
2013-05-11 12:31:00,74.2,43.8,30.24,East,90,1.6,8.1,34,0.00,,,0.00,WUHU216HW,2013-05-11 18:31:00,
2013-05-11 12:36:00,74.2,43.8,30.23,East,90,3.4,8.7,34,0.00,,,0.00,WUHU216HW,2013-05-11 18:36:00,
2013-05-11 12:41:00,73.8,43.5,30.24,East,90,5.6,8.7,34,0.00,,,0.00,WUHU216HW,2013-05-11 18:41:00,
2013-05-11 12:46:00,73.3,43.7,30.23,ENE,68,3.4,8.1,35,0.00,,,0.00,WUHU216HW,2013-05-11 18:46:00,
2013-05-11 12:51:00,74.2,44.6,30.24,ESE,113,3.8,6.9,35,0.00,,,0.00,WUHU216HW,2013-05-11 18:51:00,
2013-05-11 12:56:00,74.5,44.1,30.23,SE,135,2.2,6.9,34,0.00,,,0.00,WUHU216HW,2013-05-11 18:56:00,
2013-05-11 13:01:00,74.0,44.4,30.23,ESE,113,6.0,6.0,35,0.00,,,0.00,WUHU216HW,2013-05-11 19:01:00,
2013-05-11 13:06:00,73.1,43.7,30.23,ESE,113,2.0,6.0,35,0.00,,,0.00,WUHU216HW,2013-05-11 19:06:00,
2013-05-11 13:11:00,72.2,44.4,30.23,East,90,2.9,6.0,37,0.00,,,0.00,WUHU216HW,2013-05-11 19:11:00,
2013-05-11 13:16:00,72.2,44.4,30.23,SE,135,0.4,3.6,37,0.00,,,0.00,WUHU216HW,2013-05-11 19:16:00,
2013-05-11 13:21:00,72.5,44.6,30.22,ESE,113,2.0,3.6,37,0.00,,,0.00,WUHU216HW,2013-05-11 19:21:00,
2013-05-11 13:26:00,73.3,43.7,30.22,East,90,2.5,3.4,35,0.00,,,0.00,WUHU216HW,2013-05-11 19:26:00,
2013-05-11 13:31:00,73.8,44.3,30.22,SE,135,2.0,2.7,35,0.00,,,0.00,WUHU216HW,2013-05-11 19:31:00,
2013-05-11 13:36:00,73.8,44.3,30.22,SW,225,0.7,2.7,35,0.00,,,0.00,WUHU216HW,2013-05-11 19:36:00,
2013-05-11 13:41:00,74.7,45.1,30.22,SSE,158,1.3,3.8,35,0.00,,,0.00,WUHU216HW,2013-05-11 19:41:00,
2013-05-11 13:46:00,76.3,45.0,30.21,ESE,113,3.6,3.8,33,0.00,,,0.00,WUHU216HW,2013-05-11 19:46:00,
2013-05-11 13:51:00,77.0,44.1,30.21,West,270,1.1,3.8,31,0.00,,,0.00,WUHU216HW,2013-05-11 19:51:00,
2013-05-11 13:56:00,77.4,44.5,30.21,ESE,113,2.7,3.6,31,0.00,,,0.00,WUHU216HW,2013-05-11 19:56:00,
2013-05-11 14:01:00,77.0,44.9,30.20,NNE,23,0.7,3.4,32,0.00,,,0.00,WUHU216HW,2013-05-11 20:01:00,
2013-05-11 14:06:00,77.0,43.4,30.20,ESE,113,2.5,6.5,30,0.00,,,0.00,WUHU216HW,2013-05-11 20:06:00,
2013-05-11 14:11:00,76.7,42.0,30.20,East,90,4.0,6.5,29,0.00,,,0.00,WUHU216HW,2013-05-11 20:11:00,
2013-05-11 14:16:00,75.8,42.2,30.20,NW,315,2.5,4.0,30,0.00,,,0.00,WUHU216HW,2013-05-11 20:16:00,
2013-05-11 14:21:00,75.4,42.0,30.20,NE,45,1.8,5.4,30,0.00,,,0.00,WUHU216HW,2013-05-11 20:21:00,
2013-05-11 14:26:00,75.2,40.8,30.20,SE,135,2.7,5.4,29,0.00,,,0.00,WUHU216HW,2013-05-11 20:26:00,
2013-05-11 14:31:00,75.1,40.6,30.19,East,90,2.7,5.1,29,0.00,,,0.00,WUHU216HW,2013-05-11 20:31:00,
2013-05-11 14:36:00,75.2,40.8,30.19,NNE,23,0.4,5.1,29,0.00,,,0.00,WUHU216HW,2013-05-11 20:36:00,
2013-05-11 14:41:00,76.3,40.7,30.19,ESE,113,2.5,4.7,28,0.00,,,0.00,WUHU216HW,2013-05-11 20:41:00,
2013-05-11 14:46:00,76.0,40.3,30.19,East,90,4.5,4.7,28,0.00,,,0.00,WUHU216HW,2013-05-11 20:46:00,
2013-05-11 14:51:00,75.4,38.9,30.19,East,90,2.5,4.9,27,0.00,,,0.00,WUHU216HW,2013-05-11 20:51:00,
2013-05-11 14:56:00,76.1,37.4,30.18,ESE,113,2.2,6.7,25,0.00,,,0.00,WUHU216HW,2013-05-11 20:56:00,
2013-05-11 15:01:00,76.7,37.9,30.18,East,90,3.1,6.7,25,0.00,,,0.00,WUHU216HW,2013-05-11 21:01:00,
2013-05-11 15:06:00,76.5,37.7,30.18,North,0,2.2,4.0,25,0.00,,,0.00,WUHU216HW,2013-05-11 21:06:00,
2013-05-11 15:11:00,76.0,37.3,30.18,ESE,113,3.4,5.4,25,0.00,,,0.00,WUHU216HW,2013-05-11 21:11:00,
2013-05-11 15:16:00,75.2,36.6,30.17,ENE,68,3.4,6.3,25,0.00,,,0.00,WUHU216HW,2013-05-11 21:16:00,
2013-05-11 15:21:00,75.2,36.6,30.17,NNE,23,1.3,6.3,25,0.00,,,0.00,WUHU216HW,2013-05-11 21:21:00,
2013-05-11 15:26:00,76.7,37.9,30.17,ENE,68,1.3,4.0,25,0.00,,,0.00,WUHU216HW,2013-05-11 21:26:00,
2013-05-11 15:31:00,77.6,36.6,30.17,East,90,3.1,8.3,23,0.00,,,0.00,WUHU216HW,2013-05-11 21:31:00,
2013-05-11 15:36:00,78.1,35.9,30.17,North,0,2.7,8.3,22,0.00,,,0.00,WUHU216HW,2013-05-11 21:36:00,
2013-05-11 15:41:00,78.8,36.5,30.17,SSE,158,4.0,6.3,22,0.00,,,0.00,WUHU216HW,2013-05-11 21:41:00,
2013-05-11 15:46:00,78.7,37.4,30.17,ESE,113,2.5,4.9,23,0.00,,,0.00,WUHU216HW,2013-05-11 21:46:00,
2013-05-11 15:51:00,77.8,36.6,30.16,East,90,1.8,8.3,23,0.00,,,0.00,WUHU216HW,2013-05-11 21:51:00,
2013-05-11 15:56:00,77.4,35.3,30.16,NE,45,2.7,8.3,22,0.00,,,0.00,WUHU216HW,2013-05-11 21:56:00,
2013-05-11 16:01:00,76.7,35.7,30.16,East,90,2.5,6.3,23,0.00,,,0.00,WUHU216HW,2013-05-11 22:01:00,
2013-05-11 16:06:00,76.3,34.5,30.16,East,90,4.0,6.3,22,0.00,,,0.00,WUHU216HW,2013-05-11 22:06:00,
2013-05-11 16:11:00,76.1,35.4,30.16,SE,135,4.5,5.6,23,0.00,,,0.00,WUHU216HW,2013-05-11 22:11:00,
2013-05-11 16:16:00,76.3,36.6,30.16,East,90,1.8,5.4,24,0.00,,,0.00,WUHU216HW,2013-05-11 22:16:00,
2013-05-11 16:21:00,76.9,35.9,30.16,NE,45,1.8,5.1,23,0.00,,,0.00,WUHU216HW,2013-05-11 22:21:00,
2013-05-11 16:26:00,77.2,36.2,30.15,ESE,113,0.9,3.8,23,0.00,,,0.00,WUHU216HW,2013-05-11 22:26:00,
2013-05-11 16:31:00,77.0,35.0,30.15,ESE,113,7.6,13.2,22,0.00,,,0.00,WUHU216HW,2013-05-11 22:31:00,
2013-05-11 16:36:00,76.0,36.2,30.15,ESE,113,4.3,13.2,24,0.00,,,0.00,WUHU216HW,2013-05-11 22:36:00,
2013-05-11 16:41:00,75.4,36.8,30.15,SE,135,6.3,8.3,25,0.00,,,0.00,WUHU216HW,2013-05-11 22:41:00,
2013-05-11 16:46:00,75.2,36.6,30.15,East,90,4.0,8.5,25,0.00,,,0.00,WUHU216HW,2013-05-11 22:46:00,
2013-05-11 16:51:00,75.4,36.8,30.15,ESE,113,3.1,8.5,25,0.00,,,0.00,WUHU216HW,2013-05-11 22:51:00,
2013-05-11 16:56:00,75.1,35.5,30.16,ESE,113,3.8,6.9,24,0.00,,,0.00,WUHU216HW,2013-05-11 22:56:00,
2013-05-11 17:01:00,75.1,34.5,30.15,ESE,113,3.1,6.9,23,0.00,,,0.00,WUHU216HW,2013-05-11 23:01:00,
2013-05-11 17:06:00,75.1,35.5,30.16,SSE,158,3.8,6.3,24,0.00,,,0.00,WUHU216HW,2013-05-11 23:06:00,
2013-05-11 17:11:00,75.4,35.7,30.15,NE,45,3.4,6.3,24,0.00,,,0.00,WUHU216HW,2013-05-11 23:11:00,
2013-05-11 17:16:00,75.6,35.9,30.15,ESE,113,2.5,6.0,24,0.00,,,0.00,WUHU216HW,2013-05-11 23:16:00,
2013-05-11 17:21:00,75.2,34.6,30.15,NNE,23,1.3,5.4,23,0.00,,,0.00,WUHU216HW,2013-05-11 23:21:00,
2013-05-11 17:26:00,75.1,34.5,30.15,ESE,113,3.1,5.4,23,0.00,,,0.00,WUHU216HW,2013-05-11 23:26:00,
2013-05-11 17:31:00,74.9,34.3,30.15,SE,135,1.6,4.0,23,0.00,,,0.00,WUHU216HW,2013-05-11 23:31:00,
2013-05-11 17:36:00,74.9,34.3,30.15,ESE,113,0.9,4.0,23,0.00,,,0.00,WUHU216HW,2013-05-11 23:36:00,
2013-05-11 17:41:00,75.6,33.8,30.15,ENE,68,3.4,3.8,22,0.00,,,0.00,WUHU216HW,2013-05-11 23:41:00,
2013-05-11 17:46:00,76.5,30.9,30.15,ESE,113,5.4,8.7,19,0.00,,,0.00,WUHU216HW,2013-05-11 23:46:00,
2013-05-11 17:51:00,76.7,29.3,30.15,ESE,113,5.8,8.7,18,0.00,,,0.00,WUHU216HW,2013-05-11 23:51:00,
2013-05-11 17:56:00,76.3,29.1,30.15,ENE,68,3.4,8.3,18,0.00,,,0.00,WUHU216HW,2013-05-11 23:56:00,
2013-05-11 18:01:00,75.4,28.4,30.15,ENE,68,4.3,8.3,18,0.00,,,0.00,WUHU216HW,2013-05-12 00:01:00,
2013-05-11 18:06:00,74.9,29.5,30.15,East,90,2.2,8.1,19,0.00,,,0.00,WUHU216HW,2013-05-12 00:06:00,
2013-05-11 18:11:00,75.1,29.7,30.15,ESE,113,3.1,6.0,19,0.00,,,0.00,WUHU216HW,2013-05-12 00:11:00,
2013-05-11 18:16:00,75.6,28.4,30.15,ESE,113,6.7,6.7,18,0.00,,,0.00,WUHU216HW,2013-05-12 00:16:00,
2013-05-11 18:21:00,75.8,30.2,30.15,East,90,1.8,8.5,19,0.00,,,0.00,WUHU216HW,2013-05-12 00:21:00,
2013-05-11 18:26:00,75.6,30.2,30.15,ENE,68,2.7,8.5,19,0.00,,,0.00,WUHU216HW,2013-05-12 00:26:00,
2013-05-11 18:31:00,75.4,30.0,30.15,ENE,68,2.2,4.3,19,0.00,,,0.00,WUHU216HW,2013-05-12 00:31:00,
2013-05-11 18:36:00,77.9,32.0,30.15,East,90,2.2,4.3,19,0.00,,,0.00,WUHU216HW,2013-05-12 00:36:00,
2013-05-11 18:41:00,79.9,30.3,30.15,East,90,2.7,6.3,17,0.00,,,0.00,WUHU216HW,2013-05-12 00:41:00,
2013-05-11 18:46:00,80.1,28.8,30.15,East,90,3.6,6.3,16,0.00,,,0.00,WUHU216HW,2013-05-12 00:46:00,
2013-05-11 18:51:00,77.4,28.3,30.15,ESE,113,4.5,6.3,17,0.00,,,0.00,WUHU216HW,2013-05-12 00:51:00,
2013-05-11 18:56:00,75.6,28.4,30.15,ENE,68,2.5,6.9,18,0.00,,,0.00,WUHU216HW,2013-05-12 00:56:00,
2013-05-11 19:01:00,74.7,27.8,30.15,East,90,2.0,6.9,18,0.00,,,0.00,WUHU216HW,2013-05-12 01:01:00,
2013-05-11 19:06:00,74.3,29.2,30.16,ESE,113,5.1,5.4,19,0.00,,,0.00,WUHU216HW,2013-05-12 01:06:00,
2013-05-11 19:11:00,74.2,29.0,30.16,East,90,2.5,5.1,19,0.00,,,0.00,WUHU216HW,2013-05-12 01:11:00,
2013-05-11 19:16:00,74.0,28.9,30.16,ESE,113,2.0,6.3,19,0.00,,,0.00,WUHU216HW,2013-05-12 01:16:00,
2013-05-11 19:21:00,73.8,31.3,30.16,ENE,68,3.6,6.3,21,0.00,,,0.00,WUHU216HW,2013-05-12 01:21:00,
2013-05-11 19:26:00,73.6,31.2,30.16,East,90,4.0,4.7,21,0.00,,,0.00,WUHU216HW,2013-05-12 01:26:00,
2013-05-11 19:31:00,73.1,31.8,30.16,NE,45,8.5,8.5,22,0.00,,,0.00,WUHU216HW,2013-05-12 01:31:00,
2013-05-11 19:36:00,72.9,31.6,30.17,NNE,23,5.1,8.5,22,0.00,,,0.00,WUHU216HW,2013-05-12 01:36:00,
2013-05-11 19:41:00,72.7,31.4,30.17,NE,45,5.4,6.3,22,0.00,,,0.00,WUHU216HW,2013-05-12 01:41:00,
2013-05-11 19:46:00,72.4,32.1,30.18,ESE,113,4.5,6.3,23,0.00,,,0.00,WUHU216HW,2013-05-12 01:46:00,
2013-05-11 19:51:00,72.2,39.2,30.19,SE,135,3.4,7.6,30,0.00,,,0.00,WUHU216HW,2013-05-12 01:51:00,
2013-05-11 19:56:00,71.1,41.1,30.19,ESE,113,3.1,7.6,34,0.00,,,0.00,WUHU216HW,2013-05-12 01:56:00,
2013-05-11 20:01:00,70.0,41.0,30.19,SE,135,2.0,5.8,35,0.00,,,0.00,WUHU216HW,2013-05-12 02:01:00,
2013-05-11 20:06:00,69.3,42.5,30.19,SE,135,4.9,5.4,38,0.00,,,0.00,WUHU216HW,2013-05-12 02:06:00,
2013-05-11 20:11:00,68.8,42.8,30.20,ESE,113,2.7,5.4,39,0.00,,,0.00,WUHU216HW,2013-05-12 02:11:00,
2013-05-11 20:16:00,68.4,42.4,30.20,SE,135,4.3,6.3,39,0.00,,,0.00,WUHU216HW,2013-05-12 02:16:00,
2013-05-11 20:21:00,68.4,42.4,30.20,SE,135,7.2,7.2,39,0.00,,,0.00,WUHU216HW,2013-05-12 02:21:00,
2013-05-11 20:26:00,68.0,42.1,30.20,SSE,158,1.8,7.2,39,0.00,,,0.00,WUHU216HW,2013-05-12 02:26:00,
2013-05-11 20:31:00,68.0,42.1,30.20,SSE,158,3.4,7.2,39,0.00,,,0.00,WUHU216HW,2013-05-12 02:31:00,
2013-05-11 20:36:00,67.9,41.9,30.20,SSE,158,2.5,7.2,39,0.00,,,0.00,WUHU216HW,2013-05-12 02:36:00,
2013-05-11 20:41:00,67.7,42.5,30.20,SW,225,5.4,7.6,40,0.00,,,0.00,WUHU216HW,2013-05-12 02:41:00,
2013-05-11 20:46:00,67.3,42.2,30.20,South,180,4.9,7.6,40,0.00,,,0.00,WUHU216HW,2013-05-12 02:46:00,
2013-05-11 20:51:00,67.0,41.1,30.21,SSW,203,1.8,5.4,39,0.00,,,0.00,WUHU216HW,2013-05-12 02:51:00,
2013-05-11 20:56:00,66.6,41.6,30.21,SW,225,4.5,5.4,40,0.00,,,0.00,WUHU216HW,2013-05-12 02:56:00,
2013-05-11 21:01:00,66.4,41.4,30.21,SW,225,4.9,5.4,40,0.00,,,0.00,WUHU216HW,2013-05-12 03:01:00,
2013-05-11 21:06:00,66.2,41.2,30.22,SSW,203,3.4,5.4,40,0.00,,,0.00,WUHU216HW,2013-05-12 03:06:00,
2013-05-11 21:11:00,65.9,40.9,30.21,SW,225,2.9,4.3,40,0.00,,,0.00,WUHU216HW,2013-05-12 03:11:00,
2013-05-11 21:16:00,65.7,40.8,30.22,SSW,203,2.2,3.1,40,0.00,,,0.00,WUHU216HW,2013-05-12 03:16:00,
2013-05-11 21:21:00,65.5,41.1,30.22,SSW,203,1.1,2.2,41,0.00,,,0.00,WUHU216HW,2013-05-12 03:21:00,
2013-05-11 21:26:00,65.2,40.9,30.22,SW,225,1.3,2.2,41,0.00,,,0.00,WUHU216HW,2013-05-12 03:26:00,
2013-05-11 21:31:00,65.0,41.2,30.22,SSW,203,2.5,3.4,42,0.00,,,0.00,WUHU216HW,2013-05-12 03:31:00,
2013-05-11 21:36:00,65.0,41.9,30.22,SW,225,2.7,3.4,43,0.00,,,0.00,WUHU216HW,2013-05-12 03:36:00,
2013-05-11 21:41:00,64.8,41.7,30.22,SSW,203,1.8,3.1,43,0.00,,,0.00,WUHU216HW,2013-05-12 03:41:00,
2013-05-11 21:46:00,64.6,41.5,30.22,SSW,203,4.0,4.0,43,0.00,,,0.00,WUHU216HW,2013-05-12 03:46:00,
2013-05-11 21:51:00,64.4,41.3,30.23,WSW,248,1.8,4.0,43,0.00,,,0.00,WUHU216HW,2013-05-12 03:51:00,
2013-05-11 21:56:00,64.3,41.8,30.23,SW,225,1.1,2.9,44,0.00,,,0.00,WUHU216HW,2013-05-12 03:56:00,
2013-05-11 22:01:00,64.1,41.1,30.23,WSW,248,1.1,2.5,43,0.00,,,0.00,WUHU216HW,2013-05-12 04:01:00,
2013-05-11 22:06:00,63.9,41.4,30.23,SSW,203,1.1,2.7,44,0.00,,,0.00,WUHU216HW,2013-05-12 04:06:00,
2013-05-11 22:11:00,63.7,41.2,30.24,SSW,203,0.4,2.0,44,0.00,,,0.00,WUHU216HW,2013-05-12 04:11:00,
2013-05-11 22:16:00,63.5,41.7,30.24,WNW,293,1.1,2.0,45,0.00,,,0.00,WUHU216HW,2013-05-12 04:16:00,
2013-05-11 22:21:00,63.7,41.9,30.24,WSW,248,0.4,2.9,45,0.00,,,0.00,WUHU216HW,2013-05-12 04:21:00,
2013-05-11 22:26:00,63.5,41.1,30.24,WSW,248,0.9,3.4,44,0.00,,,0.00,WUHU216HW,2013-05-12 04:26:00,
2013-05-11 22:31:00,63.4,41.5,30.24,SW,225,1.1,3.4,45,0.00,,,0.00,WUHU216HW,2013-05-12 04:31:00,
2013-05-11 22:36:00,63.4,41.0,30.24,ESE,113,0.7,2.7,44,0.00,,,0.00,WUHU216HW,2013-05-12 04:36:00,
2013-05-11 22:41:00,63.5,40.5,30.25,SE,135,1.1,2.7,43,0.00,,,0.00,WUHU216HW,2013-05-12 04:41:00,
2013-05-11 22:46:00,63.2,40.2,30.25,SE,135,0.7,2.0,43,0.00,,,0.00,WUHU216HW,2013-05-12 04:46:00,
2013-05-11 22:51:00,63.0,40.1,30.25,SE,135,0.0,1.6,43,0.00,,,0.00,WUHU216HW,2013-05-12 04:51:00,
2013-05-11 22:56:00,62.8,39.9,30.25,SE,135,0.0,1.6,43,0.00,,,0.00,WUHU216HW,2013-05-12 04:56:00,
2013-05-11 23:01:00,62.5,39.5,30.25,SE,135,1.6,1.8,43,0.00,,,0.00,WUHU216HW,2013-05-12 05:01:00,
2013-05-11 23:06:00,62.3,39.4,30.25,East,90,1.1,2.2,43,0.00,,,0.00,WUHU216HW,2013-05-12 05:06:00,
2013-05-11 23:11:00,62.3,39.4,30.25,ESE,113,0.0,2.5,43,0.00,,,0.00,WUHU216HW,2013-05-12 05:11:00,
2013-05-11 23:16:00,62.3,38.8,30.25,SE,135,0.4,2.5,42,0.00,,,0.00,WUHU216HW,2013-05-12 05:16:00,
2013-05-11 23:21:00,61.9,38.5,30.25,SE,135,0.0,1.1,42,0.00,,,0.00,WUHU216HW,2013-05-12 05:21:00,
2013-05-11 23:26:00,61.6,38.7,30.25,SE,135,0.0,1.1,43,0.00,,,0.00,WUHU216HW,2013-05-12 05:26:00,
2013-05-11 23:31:00,61.4,38.6,30.25,SE,135,0.0,0.7,43,0.00,,,0.00,WUHU216HW,2013-05-12 05:31:00,
2013-05-11 23:36:00,61.2,38.4,30.25,SE,135,0.0,0.7,43,0.00,,,0.00,WUHU216HW,2013-05-12 05:36:00,
2013-05-11 23:41:00,60.8,38.1,30.25,ESE,113,0.0,1.3,43,0.00,,,0.00,WUHU216HW,2013-05-12 05:41:00,
2013-05-11 23:46:00,60.7,38.5,30.25,ESE,113,0.0,1.3,44,0.00,,,0.00,WUHU216HW,2013-05-12 05:46:00,
2013-05-11 23:51:00,60.7,37.9,30.25,ESE,113,0.4,1.3,43,0.00,,,0.00,WUHU216HW,2013-05-12 05:51:00,
2013-05-11 23:56:00,60.8,38.1,30.25,East,90,0.4,1.3,43,0.00,,,0.00,WUHU216HW,2013-05-12 05:56:00,